FW5619 Weather Reports


time (UTC)temp
C
wind
direction
speed
KPH
gust
KPH
rain 1hr
cm
rain 24hr
cm
rain mn
cm
humidity
%
barometer
mb
20260506143045 13 189 29.0 51.5 0.00 0.00 0.00 91 1011.5
20260506142543 13 219 29.0 48.3 0.00 0.00 0.00 92 1011.5
20260506142044 13 175 33.8 53.1 0.00 0.00 0.00 92 1011.7
20260506141542 13 192 33.8 48.3 0.00 0.00 0.00 92 1012.0
20260506141042 13 182 33.8 54.7 0.00 0.00 0.00 91 1012.1
20260506140548 13 209 32.2 54.7 0.00 0.00 0.00 92 1012.0
20260506140043 13 203 35.4 48.3 0.00 0.00 0.00 92 1012.0
20260506135541 13 209 33.8 53.1 0.00 0.00 0.00 92 1012.2
20260506135041 13 203 33.8 53.1 0.00 0.00 0.00 92 1012.2
20260506134541 13 204 32.2 51.5 0.00 0.00 0.00 92 1012.1
20260506134141 13 220 35.4 51.5 0.00 0.00 0.00 92 1012.3
20260506133540 13 202 33.8 54.7 0.00 0.00 0.00 92 1012.3
20260506133044 13 211 35.4 54.7 0.00 0.00 0.00 92 1012.2
20260506132543 13 201 37.0 57.9 0.00 0.00 0.00 92 1012.1
20260506132043 13 198 35.4 49.9 0.00 0.00 0.00 92 1012.2
20260506131546 13 177 35.4 49.9 0.00 0.00 0.00 92 1012.1
20260506131040 12 203 35.4 49.9 0.00 0.00 0.00 93 1012.1
20260506130543 12 188 33.8 45.1 0.00 0.00 0.00 93 1012.2
20260506130040 12 198 33.8 48.3 0.00 0.00 0.00 93 1012.0
20260506125539 12 204 33.8 48.3 0.00 0.00 0.00 92 1012.0
20260506125038 12 205 32.2 48.3 0.00 0.00 0.00 92 1012.2
20260506124539 12 198 33.8 48.3 0.00 0.00 0.00 92 1012.1
20260506124040 12 199 32.2 48.3 0.00 0.00 0.00 92 1012.2
20260506123540 12 206 30.6 41.8 0.00 0.00 0.00 92 1012.2
20260506123038 12 200 30.6 49.9 0.00 0.00 0.00 92 1012.4
20260506122538 13 217 32.2 49.9 0.00 0.00 0.00 92 1012.5
20260506122037 13 165 32.2 48.3 0.00 0.00 0.00 92 1012.4
20260506121536 12 218 33.8 48.3 0.00 0.00 0.00 93 1012.2
20260506121039 12 177 33.8 46.7 0.00 0.00 0.00 93 1012.1
20260506120536 12 202 32.2 46.7 0.00 0.00 0.00 93 1012.3
20260506120040 12 170 35.4 49.9 0.00 0.00 0.00 93 1012.3
20260506115536 12 194 32.2 48.3 0.00 0.00 0.00 93 1012.3
20260506115136 12 190 30.6 48.3 0.00 0.00 0.00 93 1012.3
20260506114536 12 200 32.2 49.9 0.00 0.00 0.00 93 1012.3
20260506114036 12 200 32.2 48.3 0.00 0.00 0.00 93 1012.3
20260506113535 12 201 35.4 48.3 0.00 0.00 0.00 93 1012.2
20260506113040 12 211 35.4 46.7 0.00 0.00 0.00 93 1012.2
20260506112535 12 202 33.8 48.3 0.00 0.00 0.00 93 1012.0
20260506112037 12 217 32.2 46.7 0.00 0.00 0.00 93 1012.1
20260506111533 12 218 30.6 46.7 0.00 0.00 0.00 93 1012.1
20260506111034 12 190 32.2 43.5 0.00 0.00 0.00 94 1012.3
20260506110534 12 171 30.6 43.5 0.00 0.00 0.00 94 1012.3
20260506110035 12 182 30.6 45.1 0.00 0.00 0.00 94 1012.4
20260506105534 12 192 33.8 48.3 0.00 0.00 0.00 94 1012.3
20260506105035 12 248 30.6 43.5 0.00 0.00 0.00 94 1012.3
20260506104534 12 247 32.2 51.5 0.00 0.00 0.00 93 1012.2
20260506104032 12 197 32.2 51.5 0.00 0.00 0.00 93 1012.1
20260506103531 12 217 32.2 49.9 0.00 0.00 0.00 93 1012.1
20260506103031 12 197 32.2 49.9 0.00 0.00 0.00 93 1012.1
20260506102530 12 192 35.4 49.9 0.00 0.00 0.00 93 1012.1
20260506102030 12 203 32.2 49.9 0.00 0.00 0.00 93 1012.0
20260506101530 12 196 33.8 49.9 0.00 0.00 0.00 93 1012.1
20260506101029 12 196 35.4 53.1 0.00 0.00 0.00 93 1012.0
20260506100529 12 200 37.0 51.5 0.00 0.00 0.00 93 1011.9
20260506100028 12 213 37.0 49.9 0.00 0.00 0.00 93 1012.1
20260506095527 12 196 37.0 49.9 0.00 0.00 0.00 93 1012.0
20260506095027 12 181 35.4 49.9 0.00 0.00 0.00 93 1011.9
20260506094526 12 211 33.8 49.9 0.00 0.00 0.00 93 1012.0
20260506094024 12 205 37.0 51.5 0.00 0.00 0.00 93 1012.0
20260506093524 12 185 35.4 51.5 0.00 0.00 0.00 93 1011.9
20260506093023 12 198 35.4 53.1 0.00 0.00 0.00 93 1012.0
20260506092522 12 201 33.8 46.7 0.00 0.00 0.00 93 1011.9
20260506092023 12 215 30.6 46.7 0.00 0.00 0.00 93 1011.9
20260506091521 12 193 33.8 53.1 0.00 0.00 0.00 93 1011.9
20260506091019 12 194 32.2 46.7 0.00 0.00 0.00 93 1012.0
20260506090519 12 196 35.4 49.9 0.00 0.00 0.00 93 1012.1
20260506090022 12 196 32.2 48.3 0.00 0.00 0.00 93 1012.2
20260506085518 12 209 35.4 48.3 0.00 0.00 0.00 92 1012.2
20260506085018 12 192 32.2 46.7 0.00 0.00 0.00 92 1012.2
20260506084520 12 197 33.8 48.3 0.00 0.00 0.00 92 1012.2
20260506084018 12 198 32.2 48.3 0.00 0.00 0.00 92 1012.2
20260506083518 12 194 30.6 46.7 0.00 0.00 0.00 92 1012.3
20260506083017 12 199 32.2 46.7 0.00 0.00 0.00 92 1012.3
20260506082517 12 219 32.2 46.7 0.00 0.00 0.00 92 1012.4
20260506082017 12 206 32.2 48.3 0.00 0.00 0.00 92 1012.4
20260506081520 12 196 35.4 48.3 0.00 0.00 0.00 92 1012.4
20260506081018 12 171 33.8 53.1 0.00 0.00 0.00 92 1012.3
20260506080518 12 186 35.4 53.1 0.00 0.00 0.00 92 1012.4
20260506073511 12 198 32.2 49.9 0.00 0.00 0.00 92 1012.3
20260506073011 12 198 29.0 49.9 0.00 0.00 0.00 91 1012.2
20260506072512 12 191 35.4 54.7 0.00 0.00 0.00 91 1012.4
20260506072010 12 197 30.6 48.3 0.00 0.00 0.00 91 1012.5
20260506071509 12 200 33.8 48.3 0.00 0.00 0.00 91 1012.5
20260506071008 12 186 33.8 48.3 0.00 0.00 0.00 91 1012.5
20260506070511 12 186 32.2 51.5 0.00 0.00 0.00 91 1012.4
20260506062507 12 214 35.4 48.3 0.00 0.00 0.00 90 1012.3
20260506062005 12 188 32.2 48.3 0.00 0.00 0.00 90 1012.4
20260506061505 12 186 33.8 45.1 0.00 0.00 0.00 91 1012.4
20260506061007 12 189 32.2 48.3 0.00 0.00 0.00 90 1012.4
20260506060504 12 211 33.8 48.3 0.00 0.00 0.00 90 1012.4
20260506051057 13 178 32.2 48.3 0.00 0.00 0.00 89 1012.9
20260506050556 13 208 35.4 49.9 0.00 0.00 0.00 88 1012.9
20260506050107 13 200 35.4 49.9 0.00 0.00 0.00 88 1012.9
20260506045053 13 207 35.4 54.7 0.00 0.00 0.00 88 1013.0
20260506044554 13 198 37.0 53.1 0.00 0.00 0.00 88 1012.9
20260506044052 13 216 35.4 51.5 0.00 0.00 0.00 88 1013.0
20260506043551 13 178 38.6 54.7 0.00 0.00 0.00 87 1013.0
20260506043052 13 188 37.0 54.7 0.00 0.00 0.00 87 1013.0
20260506042551 13 209 37.0 61.2 0.00 0.00 0.00 87 1013.0
20260506042051 13 198 38.6 61.2 0.00 0.00 0.00 87 1012.9
20260506041551 13 194 37.0 56.3 0.00 0.00 0.00 87 1012.8
20260506041050 13 198 38.6 54.7 0.00 0.00 0.00 87 1013.0
20260506040549 13 215 38.6 51.5 0.00 0.00 0.00 87 1013.0
20260506040048 13 209 40.2 57.9 0.00 0.00 0.00 87 1013.0
20260506035550 13 207 41.8 57.9 0.00 0.00 0.00 87 1013.0
20260506035048 13 208 38.6 54.7 0.00 0.00 0.00 87 1013.0
20260506034559 13 201 41.8 54.7 0.00 0.00 0.00 86 1012.9
20260506034046 13 222 40.2 54.7 0.00 0.00 0.00 86 1012.9
20260506033547 13 187 37.0 51.5 0.00 0.00 0.00 86 1012.9
20260506033047 14 204 37.0 56.3 0.00 0.00 0.00 86 1012.9
20260506032550 14 198 37.0 56.3 0.00 0.00 0.00 86 1012.8
20260506032049 14 205 40.2 56.3 0.00 0.00 0.00 86 1012.8
20260506031547 14 160 40.2 61.2 0.00 0.00 0.00 85 1012.8
20260506031046 14 213 37.0 61.2 0.00 0.00 0.00 85 1012.8
20260506030546 14 242 37.0 53.1 0.00 0.00 0.00 85 1012.8
20260506030046 14 169 38.6 59.5 0.00 0.00 0.00 86 1012.8
20260506025549 14 233 35.4 59.5 0.00 0.00 0.00 86 1012.9
20260506025044 14 192 33.8 53.1 0.00 0.00 0.00 85 1012.9
20260506024602 14 236 35.4 56.3 0.00 0.00 0.00 85 1012.9
20260506024044 14 219 38.6 56.3 0.00 0.00 0.00 85 1012.8
20260506023543 14 205 32.2 51.5 0.00 0.00 0.00 86 1012.9
20260506023044 14 206 33.8 51.5 0.00 0.00 0.00 86 1012.8
20260506022543 14 204 35.4 57.9 0.00 0.00 0.00 85 1012.9
20260506022043 14 202 38.6 57.9 0.00 0.00 0.00 85 1012.9
20260506021545 14 192 35.4 69.2 0.00 0.00 0.00 85 1012.8
20260506021042 14 198 41.8 61.2 0.00 0.00 0.00 85 1012.9
20260506020541 14 197 38.6 56.3 0.00 0.00 0.00 85 1012.9
20260506020042 14 184 37.0 56.3 0.00 0.00 0.00 85 1013.0
20260506015546 14 188 35.4 53.1 0.00 0.00 0.00 85 1012.8
20260506015042 14 201 38.6 51.5 0.00 0.00 0.00 85 1012.9
20260506014546 14 238 35.4 53.1 0.00 0.00 0.00 84 1012.8
20260506014045 14 195 37.0 53.1 0.00 0.00 0.00 84 1012.7
20260506013544 14 209 38.6 53.1 0.00 0.00 0.00 84 1012.7
20260506013058 14 240 38.6 53.1 0.00 0.00 0.00 84 1012.5
20260506012541 14 200 33.8 48.3 0.00 0.00 0.00 84 1012.7
20260506012041 14 200 33.8 48.3 0.00 0.00 0.00 83 1012.6
20260506011542 15 177 35.4 49.9 0.00 0.00 0.00 82 1012.6
20260506011040 15 222 37.0 53.1 0.00 0.00 0.00 82 1012.6
20260506010540 15 190 38.6 53.1 0.00 0.00 0.00 82 1012.4
20260506010040 15 192 38.6 56.3 0.00 0.00 0.00 83 1012.4
20260506005540 15 204 41.8 56.3 0.00 0.00 0.00 83 1012.3
20260506005038 15 190 37.0 56.3 0.00 0.00 0.00 82 1012.1
20260506004539 15 202 41.8 56.3 0.00 0.00 0.00 82 1012.1
20260506004039 15 187 40.2 61.2 0.00 0.00 0.00 81 1012.1
20260506003538 15 191 40.2 61.2 0.00 0.00 0.00 81 1012.0
20260506003039 15 203 40.2 57.9 0.00 0.00 0.00 81 1011.9
20260506002538 15 214 37.0 57.9 0.00 0.00 0.00 81 1011.8
20260506002042 15 228 40.2 61.2 0.00 0.00 0.00 81 1011.8
20260506001541 15 242 38.6 61.2 0.00 0.00 0.00 80 1011.8
20260506001038 15 209 40.2 61.2 0.00 0.00 0.00 79 1011.7
20260506000537 16 160 37.0 61.2 0.00 0.00 0.00 79 1011.5
20260506000037 16 215 40.2 61.2 0.00 0.00 0.00 79 1011.5
20260505235537 16 178 38.6 69.2 0.00 0.00 0.00 79 1011.4
20260505235036 16 215 33.8 69.2 0.00 0.00 0.00 80 1011.3
20260505234537 15 224 38.6 66.0 0.00 0.00 0.00 80 1011.3
20260505234036 15 226 40.2 66.0 0.00 0.00 0.00 80 1011.1
20260505233536 15 192 40.2 66.0 0.00 0.00 0.00 80 1011.0
20260505233035 15 195 45.1 64.4 0.00 0.00 0.00 80 1010.9
20260505232535 15 203 46.7 66.0 0.00 0.00 0.00 80 1010.8
20260505232035 15 197 41.8 66.0 0.00 0.00 0.00 80 1010.9
20260505231537 15 198 38.6 61.2 0.00 0.00 0.00 80 1010.9
20260505231036 15 190 41.8 69.2 0.00 0.00 0.00 80 1010.8
20260505230534 15 254 46.7 69.2 0.00 0.00 0.00 80 1010.8
20260505230049 15 209 43.5 61.2 0.00 0.00 0.00 81 1010.8
20260505225534 15 198 43.5 61.2 0.00 0.00 0.00 82 1010.8
20260505225038 15 204 41.8 64.4 0.00 0.00 0.00 83 1010.7
20260505224533 15 209 41.8 61.2 0.00 0.00 0.00 83 1010.8
20260505224038 14 204 43.5 67.6 0.00 0.00 0.00 84 1010.8
20260505223532 14 194 43.5 66.0 0.00 0.00 0.00 83 1010.7
20260505223038 15 190 43.5 61.2 0.00 0.00 0.00 83 1010.5
20260505222534 15 200 45.1 72.4 0.00 0.00 0.00 83 1010.6
20260505222034 15 202 45.1 69.2 0.00 0.00 0.00 83 1010.6
20260505221536 15 119 41.8 64.4 0.00 0.00 0.00 83 1010.6
20260505221037 15 189 41.8 64.4 0.00 0.00 0.00 82 1010.6
20260505220532 15 194 40.2 64.4 0.00 0.00 0.00 82 1010.5
20260505220038 15 167 41.8 62.8 0.00 0.00 0.00 82 1010.4
20260505215532 15 219 41.8 62.8 0.00 0.00 0.00 82 1010.5
20260505215031 15 249 48.3 64.4 0.00 0.00 0.00 82 1010.7
20260505214530 15 199 41.8 69.2 0.00 0.00 0.00 83 1010.5
20260505214030 15 188 45.1 69.2 0.00 0.00 0.00 82 1010.5
20260505213530 15 198 41.8 67.6 0.00 0.00 0.00 82 1010.4
20260505213048 15 208 41.8 67.6 0.00 0.00 0.00 82 1010.3
20260505212533 15 185 43.5 62.8 0.00 0.00 0.00 82 1010.2
20260505212030 15 219 45.1 64.4 0.00 0.00 0.00 82 1010.1
20260505211530 15 197 45.1 64.4 0.00 0.00 0.00 82 1010.1
20260505211031 15 195 43.5 61.2 0.00 0.00 0.00 82 1010.1
20260505210533 15 189 46.7 66.0 0.00 0.00 0.00 82 1010.1
20260505210030 15 186 41.8 67.6 0.00 0.00 0.00 83 1010.3
20260505205529 15 204 45.1 67.6 0.00 0.00 0.00 83 1010.3
20260505205027 15 201 45.1 62.8 0.00 0.00 0.00 83 1010.1
20260505204528 15 194 41.8 61.2 0.00 0.00 0.00 83 1010.2
20260505204032 15 174 40.2 61.2 0.00 0.00 0.00 83 1010.2
20260505203528 15 187 37.0 61.2 0.00 0.00 0.00 83 1010.1
20260505203041 15 198 38.6 67.6 0.00 0.00 0.00 83 1010.1
20260505202527 15 229 40.2 62.8 0.00 0.00 0.00 83 1010.2
20260505202027 15 217 37.0 62.8 0.00 0.00 0.00 83 1010.2
20260505201527 15 208 38.6 66.0 0.00 0.00 0.00 83 1010.3
20260505201025 15 182 37.0 66.0 0.00 0.00 0.00 83 1010.3
20260505200527 15 185 37.0 57.9 0.00 0.00 0.00 83 1010.4
20260505200033 15 221 35.4 61.2 0.00 0.00 0.00 82 1010.5
20260505195626 15 226 29.0 61.2 0.00 0.00 0.00 82 1010.4
20260505195023 15 209 38.6 59.5 0.00 0.00 0.00 82 1010.5
20260505194522 15 202 43.5 59.5 0.00 0.00 0.00 82 1010.6
20260505194022 15 192 35.4 51.5 0.00 0.00 0.00 82 1010.7
20260505193522 15 223 35.4 59.5 0.00 0.00 0.00 82 1010.7
20260505193022 15 194 33.8 49.9 0.00 0.00 0.00 82 1010.9
20260505192524 15 213 32.2 53.1 0.00 0.00 0.00 83 1011.0
20260505192020 15 217 35.4 51.5 0.00 0.00 0.00 83 1011.0
20260505191520 15 193 37.0 51.5 0.00 0.00 0.00 82 1011.1
20260505191021 15 213 33.8 53.1 0.00 0.00 0.00 83 1011.2
20260505190522 15 202 37.0 57.9 0.00 0.00 0.00 83 1011.2
20260505190017 15 193 37.0 54.7 0.00 0.00 0.00 83 1011.4
20260505185520 15 198 35.4 53.1 0.00 0.00 0.00 83 1011.5
20260505185015 15 198 30.6 49.9 0.00 0.00 0.00 84 1011.5
20260505184522 15 195 32.2 51.5 0.00 0.00 0.00 84 1011.7
20260505184015 15 208 33.8 49.9 0.00 0.00 0.00 84 1011.7
20260505183514 15 195 33.8 51.5 0.00 0.00 0.00 83 1011.8
20260505183014 15 192 33.8 51.5 0.00 0.00 0.00 83 1011.8
20260505182514 15 208 35.4 48.3 0.00 0.00 0.00 84 1011.8
20260505182013 15 175 33.8 48.3 0.00 0.00 0.00 84 1011.9
20260505181512 15 192 33.8 48.3 0.00 0.00 0.00 83 1012.0
20260505181013 15 180 25.7 46.7 0.00 0.00 0.00 83 1012.0
20260505180518 15 207 30.6 48.3 0.00 0.00 0.00 83 1012.1
20260505180011 15 201 25.7 40.2 0.00 0.00 0.00 83 1012.1
20260505175510 15 205 25.7 41.8 0.00 0.00 0.00 83 1012.1
20260505175010 15 174 20.9 35.4 0.00 0.00 0.00 83 1012.3
20260505174514 15 200 22.5 33.8 0.00 0.00 0.00 82 1012.4
20260505174010 15 197 17.7 30.6 0.00 0.00 0.00 81 1012.4
20260505173514 16 184 9.7 20.9 0.00 0.00 0.00 81 1012.4
20260505173027 15 211 12.9 29.0 0.00 0.00 0.00 82 1012.5
20260505172509 15 219 12.9 27.4 0.00 0.00 0.00 82 1012.5
20260505172009 15 252 16.1 27.4 0.00 0.00 0.00 82 1012.6
20260505171509 15 252 14.5 24.1 0.00 0.00 0.00 81 1012.7
20260505171010 15 203 8.0 32.2 0.00 0.00 0.00 84 1012.7
20260505170509 15 213 16.1 32.2 0.00 0.00 0.00 83 1012.6
20260505170013 15 209 14.5 27.4 0.00 0.00 0.00 83 1012.7
20260505165508 15 187 17.7 33.8 0.00 0.00 0.00 84 1012.7
20260505165008 15 225 17.7 30.6 0.00 0.00 0.00 83 1012.7
20260505164520 15 263 19.3 30.6 0.00 0.00 0.00 83 1012.8
20260505164007 15 236 17.7 30.6 0.00 0.00 0.00 83 1012.9
20260505163508 15 200 19.3 30.6 0.00 0.00 0.00 83 1012.9
20260505163012 15 192 16.1 25.7 0.00 0.00 0.00 83 1012.8
20260505162507 15 204 14.5 20.9 0.00 0.00 0.00 83 1012.8
20260505162006 15 182 9.7 25.7 0.00 0.00 0.00 82 1013.0
20260505161507 15 231 12.9 38.6 0.00 0.00 0.00 84 1013.0
20260505161009 14 215 27.4 37.0 0.00 0.00 0.00 84 1013.1
20260505160506 15 196 20.9 30.6 0.00 0.00 0.00 83 1013.2
20260505153009 15 192 14.5 27.4 0.00 0.00 0.00 83 1013.4
20260505152501 15 199 6.4 19.3 0.00 0.00 0.00 84 1013.3
20260505152003 14 240 11.3 24.1 0.00 0.00 0.00 86 1013.4
20260505151501 14 207 16.1 24.1 0.00 0.00 0.00 86 1013.5
20260505151001 14 213 12.9 29.0 0.00 0.00 0.00 86 1013.6
20260505150501 14 209 20.9 29.0 0.00 0.00 0.00 86 1013.6